Tracking 20093 objects as of 16-Dec-2019
HD Live streaming from Space Station
objects crossing your sky now

COSMOS 2251 DEB

Track COSMOS 2251 DEB now!
10-day predictions


NORAD ID: 34550
Int'l Code: 1993-036UL
Perigee: 676.4 km
Apogee: 930.5 km
Inclination: 74.0 °
Period: 100.8 minutes
Semi major axis: 7174 km
RCS: 0.0083 m2 (small)
Launch date: June 16, 1993
Source: Commonwealth of Independent States (former USSR) (CIS)
Launch site: PLESETSK MISSILE AND SPACE COMPLEX (PKMTR)

Note: This is SATELLITE DEBRIS
aabbcc
Your satellite tracking list
Your tracking list is empty




NASA's NSSDC Master Catalog

Two Line Element Set (TLE):
1 34550U 93036UL  19349.74447537 +.00001564 +00000-0 +53485-3 0  9999
2 34550 073.9917 152.4341 0177081 114.2868 247.6891 14.28628772557932
Source of the keplerian elements: AFSPC